This demonstration page uses our WeatherBlox Daily Observations layout. Learn more.

Left ArrowRight Arrow

Hourly Observations for December 23, 2021

Temp ( °F °C ) Dew Point ( °F °C ) Humidity (%) Winds ( mph kmh ) Pressure ( in mb ) Visibility ( mi km ) Precip ( " mm )
12:53 am 00:53 Clear 36 2.2 24 -4.4 62 62 SW 15 24 29.54 1000 10 16 0.00 0.00
1:53 am 01:53 Clear 37 2.8 25 -3.9 62 62 SW 13 20 29.51 999 10 16 0.00 0.00
2:53 am 02:53 Clear 39 3.9 25 -3.9 57 57 SW 16 26 29.49 999 10 16 0.00 0.00
3:53 am 03:53 Mostly Clear 41 5 23 -5 49 49 SSW 17 28 29.45 997 10 16 0.00 0.00
4:53 am 04:53 Clear 41 5 26 -3.3 55 55 SSW 17 28 29.44 997 10 16 0.00 0.00
5:53 am 05:53 Clear 35 1.7 26 -3.3 70 70 SW 7 11 29.42 996 10 16 0.00 0.00
6:53 am 06:53 Clear 37 2.8 26 -3.3 65 65 SW 8 13 29.38 995 10 16 0.00 0.00
7:53 am 07:53 Clear 40 4.4 28 -2.2 63 63 SW 14 22 29.35 994 10 16 0.00 0.00
8:53 am 08:53 Sunny 37 2.8 28 -2.2 70 70 WSW 9 15 29.35 994 10 16 0.00 0.00
9:53 am 09:53 Sunny 36 2.2 27 -2.8 70 70 W 7 11 29.33 993 10 16 0.00 0.00
10:53 am 10:53 Sunny 37 2.8 29 -1.7 73 73 W 6 9 29.29 992 10 16 0.00 0.00
11:53 am 11:53 Sunny 39 3.9 31 -0.6 73 73 WNW 7 11 29.25 991 10 16 0.00 0.00
12:53 pm 12:53 Sunny 43 6.1 31 -0.6 63 63 SSW 18 30 29.16 988 10 16 0.00 0.00
1:53 pm 13:53 Sunny 44 6.7 30 -1.1 58 58 SSW 22 35 29.11 986 10 16 0.00 0.00
2:53 pm 14:53 Sunny 43 6.1 30 -1.1 60 60 SSW 26 43 29.06 984 10 16 0.00 0.00
3:53 pm 15:53 Sunny 42 5.6 30 -1.1 62 62 SSW 20 31 29.03 983 10 16 0.00 0.00
4:53 pm 16:53 Clear 43 6.1 30 -1.1 60 60 SSW 20 31 28.98 981 10 16 0.00 0.00
5:53 pm 17:53 Clear 43 6.1 30 -1.1 60 60 SSW 23 37 28.98 981 10 16 0.00 0.00
6:53 pm 18:53 Mostly Cloudy 41 5 31 -0.6 67 67 SW 20 31 29.00 982 10 16 0.00 0.00
7:53 pm 19:53 Cloudy 38 3.3 32 0 79 79 W 24 39 29.04 984 10 16 0.00 0.00
8:53 pm 20:53 Clear 20 -6.7 14 -10 78 78 NW 23 37 29.24 990 10 16 0.00 0.00
9:53 pm 21:53 Clear 15 -9.4 9 -12.8 77 77 NW 5 7 29.33 993 10 16 0.00 0.00
10:28 pm 22:28 Mostly Cloudy 15 -9.4 8 -13.3 74 74 NW 15 24 29.49 999 10 16 0.00 0.00
10:53 pm 22:53 Cloudy with Light Snow 14 -10 8 -13.3 77 77 NW 15 24 29.41 996 5 8 0.00 0.00
11:53 pm 23:53 Cloudy 12 -11.1 6 -14.4 77 77 WNW 10 17 29.43 997 10 16 0.00 0.00

Powered by AerisWeather